Wind_Speed
17 16 17 17 19 15 13 12 12 12 11 12 12 13 14 16 17 19 20 22 23 22 20 20 19 18 18 17 17 16 15 17
16 16 16 16 15 18 17 16 13 13 13 13 12 11 13 15 18 20 21 22 23 24 23 22 22 20 19 19 18 17 17 18
16 17 18 18 15 16 17 18 17 17 16 17 14 13 15 15 16 19 22 22 24 26 26 25 24 23 21 20 19 17 17 18
17 17 17 18 16 16 15 15 14 15 15 16 15 16 16 18 20 18 21 23 24 27 27 27 26 22 20 22 21 20 21 22
16 18 18 17 18 17 15 16 15 16 15 18 18 17 15 16 16 17 15 20 22 25 26 27 26 24 25 23 21 22 24 23
17 18 19 18 19 17 18 17 17 16 17 18 18 18 18 18 18 18 18 19 19 24 26 25 26 28 28 28 26 25 24 24
17 19 19 20 20 19 19 19 18 18 19 18 18 19 20 20 20 20 21 20 20 22 24 30 26 28 30 30 28 23 21 27
17 18 18 19 19 19 20 18 19 20 19 19 20 20 21 22 22 22 22 22 22 24 24 23 31 30 30 30 30 27 25 30
15 15 16 18 19 19 18 18 19 20 21 20 21 21 21 23 23 23 23 24 25 25 27 27 24 26 31 29 30 33 29 26
14 15 16 18 19 18 18 19 20 20 20 21 21 21 22 24 24 24 23 24 24 25 25 26 27 27 26 31 29 30 30 30
14 15 17 19 18 17 19 19 20 20 21 22 21 22 23 24 25 25 24 25 24 25 27 25 27 26 28 28 32 31 31 30
13 15 17 19 17 18 18 19 20 21 22 22 24 24 23 24 25 25 25 26 26 25 26 27 27 28 28 29 28 32 30 30
13 15 17 19 20 22 22 23 24 23 23 23 25 26 26 24 25 25 25 25 26 26 27 26 29 29 27 25 27 28 34 35
14 15 17 18 20 20 21 24 24 24 23 26 24 23 27 28 26 26 24 26 27 26 27 28 28 28 27 20 9 16 30 34
14 15 16 17 21 21 23 23 23 24 27 28 27 28 27 26 26 26 25 26 27 26 25 27 25 29 30 19 6 10 6 20
14 15 16 17 19 21 23 22 25 27 26 27 30 27 28 26 26 26 26 26 27 28 26 28 30 26 29 31 36 15 9 6
14 15 15 17 18 20 21 23 24 25 27 29 28 28 28 29 28 30 29 29 28 27 28 28 30 32 28 29 28 27 20 5
15 16 15 16 17 19 20 23 24 27 29 29 29 29 30 32 33 34 32 30 29 30 31 30 32 33 32 31 29 14 11 12
15 16 16 17 18 18 20 22 23 24 27 28 31 30 31 34 36 34 32 31 31 32 32 32 30 33 33 33 30 29 23 21
15 16 16 17 17 18 18 21 22 22 24 27 27 29 31 35 37 34 31 29 30 29 31 29 29 30 33 33 34 28 27 24
Wind_Direction
20 17 11 8 2 357 1 2 359 352 339 313 298 287 280 272 262 255 254 254 252 250 248 244 244 249 249 248 247 245 240 250
18 11 7 2 0 348 355 350 349 344 340 331 324 311 299 286 281 267 255 251 252 253 254 252 251 250 248 247 246 245 242 254
12 9 2 358 356 346 352 345 355 347 342 333 335 328 318 305 284 274 265 261 255 253 255 257 254 253 249 244 243 243 243 244
7 2 360 354 348 345 343 340 336 335 332 330 331 322 314 309 307 289 271 261 258 255 252 253 254 245 244 241 232 239 242 245
2 358 355 353 344 342 335 333 328 326 326 325 322 315 311 306 301 299 294 277 268 258 252 246 243 238 243 223 220 227 242 243
359 356 352 350 346 339 331 328 324 324 316 324 319 316 309 304 296 292 288 283 285 263 254 241 237 234 238 250 224 213 221 240
357 355 351 347 344 335 330 326 323 317 319 315 314 311 306 303 296 292 286 280 274 273 266 253 245 236 233 242 248 240 224 233
353 352 348 344 338 332 328 324 321 320 315 311 311 308 305 302 298 291 285 279 276 271 264 264 254 245 237 234 241 246 235 237
353 350 346 342 337 332 329 323 320 316 313 310 308 306 303 301 298 292 286 283 282 276 271 259 262 255 245 238 231 235 243 234
353 351 347 343 339 334 329 325 319 316 312 308 305 303 301 301 297 292 289 287 280 275 270 267 250 251 246 240 235 230 237 241
355 354 350 345 341 337 331 327 323 318 313 310 307 305 303 299 295 292 292 287 280 273 270 261 266 248 246 243 236 232 230 240
356 355 352 349 345 340 335 331 326 321 317 312 311 308 306 309 304 297 293 289 283 275 269 267 260 264 253 246 241 234 231 237
358 354 354 353 349 345 340 336 330 324 321 318 315 310 308 306 301 296 293 285 283 280 277 266 262 258 264 247 245 236 234 232
358 357 355 354 350 343 339 332 327 325 324 321 319 318 314 308 302 295 291 288 283 281 285 278 269 255 249 244 240 238 239 233
356 355 353 355 352 347 343 336 334 333 331 325 323 320 316 309 303 298 291 286 282 274 275 275 275 269 246 233 217 234 209 231
355 355 354 356 357 352 350 343 338 337 331 325 327 326 323 318 314 307 300 290 283 280 269 267 261 274 261 246 238 263 226 215
356 354 355 358 357 359 353 348 343 339 337 334 332 332 330 324 319 315 307 299 288 282 276 261 267 257 268 258 238 235 235 257
357 356 356 357 358 2 358 355 350 347 343 340 336 333 335 332 324 319 311 301 291 282 270 262 257 261 255 266 253 211 215 223
357 356 355 357 359 1 2 0 358 352 346 341 338 337 337 336 331 323 316 309 297 284 273 266 253 257 254 256 260 247 238 212
354 354 357 358 357 2 3 7 1 357 351 345 341 340 339 338 337 332 327 323 316 296 281 252 255 262 262 249 257 251 238 230
Height
804 802 800 799 798 796 794 793 792 790 788 787 786 784 784 783 782 782 782 783 783 784 784 785 785 785 786 786 786 787 788 787
805 805 802 801 799 797 795 793 791 790 789 787 785 784 783 782 781 780 779 779 780 781 781 782 783 782 783 784 785 785 785 785
808 805 804 801 800 798 796 794 792 790 789 787 785 784 782 780 779 778 778 777 777 777 778 779 780 781 780 781 783 783 783 782
811 808 805 804 802 798 797 795 794 792 790 787 785 783 782 779 776 774 773 772 773 773 773 775 776 777 776 776 777 779 779 778
813 811 808 805 803 801 798 796 794 791 790 787 785 782 780 778 776 773 771 769 769 768 767 768 770 771 770 768 770 772 775 774
813 811 809 806 804 802 800 797 794 792 789 787 785 782 780 777 774 771 769 766 764 764 762 762 763 765 765 764 764 763 766 770
815 813 811 808 806 804 801 798 795 791 789 787 785 782 780 777 773 770 767 764 762 760 758 757 759 759 759 760 759 759 760 764
816 814 812 810 807 805 802 798 795 791 788 786 784 782 779 776 772 768 764 762 759 756 754 753 753 753 753 754 754 754 755 758
817 815 813 811 808 805 801 799 795 791 788 785 783 781 778 775 771 766 762 759 756 753 750 748 747 747 748 749 749 750 749 750
816 815 814 811 808 804 801 798 794 790 787 784 781 779 777 773 768 764 761 757 753 750 747 742 740 740 741 742 743 744 745 745
816 815 814 811 807 804 800 797 793 790 786 783 779 776 774 770 766 762 759 755 750 747 743 741 737 734 734 735 735 738 738 741
817 815 814 811 807 804 800 796 793 789 785 781 778 774 771 767 763 759 756 753 748 744 740 737 734 731 728 727 729 731 732 733
817 815 813 810 806 803 799 795 791 787 783 780 776 772 768 764 760 757 755 751 746 742 738 734 730 728 727 723 724 725 725 726
818 815 813 811 808 804 801 797 791 786 781 778 774 769 765 760 757 753 751 747 744 740 736 731 725 724 719 719 716 717 717 718
818 816 814 812 809 804 800 796 791 785 780 776 771 766 762 758 753 749 746 743 738 736 733 730 725 718 712 711 709 703 708 710
819 817 815 812 809 807 802 798 792 787 782 776 770 764 759 755 750 745 740 736 732 729 727 724 723 715 710 701 700 698 697 701
819 818 816 813 811 808 804 800 794 788 782 775 769 763 758 752 747 741 735 731 726 722 720 718 715 712 707 699 694 696 699 696
820 818 816 815 812 808 805 800 794 788 782 776 769 762 755 750 742 735 729 724 719 715 712 710 709 704 701 696 691 688 689 694
821 819 817 815 812 809 805 801 795 790 784 778 770 763 756 748 741 733 724 718 712 708 704 701 699 697 694 690 686 682 682 684
824 822 818 816 813 809 806 801 797 792 787 781 774 766 758 749 740 732 722 714 705 698 691 691 690 688 686 683 680 677 678 680